Location: Chuathbaluk
(61.5726°N, 159.2454°W)
Time: 13:41:25
(UTC+00:00)

NUDT-PHONESAT - Pass Details

Date: 22 January 2021
Orbit: 480 x 498 km, 97.4° (Epoch: 01 March)

Event Time Altitude Azimuth Distance (km) Brightness Sun altitude
Rises 16:02:15 0° 26° (NNE) 2,611 ? -22.6°
Reaches altitude 10° 16:05:26 10° 56° (ENE) 1,720 ? -22.2°
Maximum altitude 16:07:07 13° 84° (E) 1,555 ? -22.0°
Drops below altitude 10° 16:08:48 10° 111° (ESE) 1,713 ? -21.8°
Sets 16:11:56 0° 141° (SE) 2,588 ? -21.4°
